Погода в Кардавиле

Россия / Нижегородская область     55°07′24″N   43°51′37″E
темп.,
°C
ветер,
м/с
пор.,
м/с
влажн.,
%
обл.,
%
осадки,
мм/ч
давл.,
гПа
погр.,
м
13 апреля, вт
вт1300:00+8вюв31095100 0.0 1032222
03:00+7юв399483 0.0 1032170
06:00+7юв389275 0.0 1032142
09:00+14ююв495647 0.0 1031442
12:00+18ю593335 0.0 10301330
15:00+19ю572962 0.0 10291389
18:00+15ююв364663 0.0 1028132
21:00+11ююв3862100 0.0 1029114
14 апреля, ср
ср1400:00+9ююв3967100 0.0 1028156
03:00+7ююв3872100 0.0 1028123
06:00+7юв387397 0.0 1027137
09:00+13ююв474795 0.0 1026372
12:00+18ююв47313 0.0 10241117
15:00+19ююв57325 0.0 10221422
18:00+16ююв36470 0.0 1021153
21:00+11ююв26620 0.0 102297
15 апреля, чт
чт1500:00+9ююв247220 0.0 102150
03:00+8ююв227833 0.0 102130
06:00+7юв258075 0.0 102077
09:00+14ююв355541 0.0 1019360
12:00+18ююв244273 0.0 10181152
15:00+20ююв2332100 0.0 10171838
18:00+16вюв2552100 0.0 1017110
21:00+13в376397 0.0 1017125
16 апреля, пт
пт1600:00+11в3971100 0.0 1017169
03:00+10всв3874100 0.0 1018159
06:00+10всв41174100 0.0 1018311
09:00+12всв5967100 0.1 1019498
12:00+15всв5763100 0.3 1020872
15:00+16всв565859 0.3 10201185
18:00+13всв5107289 0.6 1020701
21:00+10всв51379100 0.9 1022538
17 апреля, сб
сб1700:00+9всв5138477 0.1 1023484
03:00+7всв51283100 0.1 1024414
06:00+6всв41278100 0.1 1025398
09:00+9в595599 0.1 1025577
12:00+12в574514 0.0 10261028
15:00+13всв563715 0.0 10251293
18:00+11всв474613 0.0 1026512
21:00+6св310635 0.0 1027224